Home > Weather > Weyhe > Past weeks

Flag for Germany Weather for the Past 2 Weeks in Weyhe, Lower Saxony, Germany

Now
43 °F

Passing clouds.


Feels Like: 43 °F
Forecast: 34 / 42 °F
Wind: 2 mph from North

Location: Bremen Airport

Current Time: Feb 12, 2016 at 2:10:47 PM

Latest Report: Feb 12, 2016 at 1:20 PM


Visibility: N/A

Pressure: 29.56 "Hg

Humidity: 76%

Dew point: 36 °F

Location of WeyheLocation

Historic Weather in Weyhe — Graph

°F

Weyhe Temperature Yesterday

Maximum temperature yesterday: 45 °F (at 2:20 PM)
Minimum temperature yesterday: 34 °F (at 8:20 PM)
Average temperature yesterday: 39 °F

High & Low Weather Summary for the Past Weeks

 TemperatureHumidityPressure
High54 °F (Feb 1, 8:20 PM)100% (Feb 1, 12:20 AM)30.24 "Hg (Feb 1, 12:20 AM)
Low28 °F (Feb 12, 6:20 AM)61% (Feb 3, 1:20 PM)28.74 "Hg (Feb 9, 8:20 PM)
Average43 °F83%29.69 "Hg
* Reported Jan 28 12:20 PM — Feb 12 12:50 PM, Weyhe, Weather by CustomWeather, © 2016

Note: Actual official high and low records may vary slightly from our data, if they occured in-between our weather recording intervals... More about our weather records

Advertising

Weyhe Weather History for the Previous 24 Hours

 ConditionsComfort  
Time TempWeatherWind HumidityBarometerVisibility
12:50 PM
Fri, Feb 12
41 °FScattered clouds.3 mph81%29.56 "HgN/A
12:20 PM41 °FPartly sunny.6 mph81%29.56 "Hg5 mi
11:50 AM37 °FFog.5 mph93%29.59 "Hg3 mi
11:20 AM37 °FFog.6 mph93%29.59 "Hg2 mi
10:50 AM37 °FFog.3 mph93%29.59 "Hg2 mi
10:20 AM36 °FFog.5 mph100%29.59 "Hg2 mi
9:50 AM36 °FFog.6 mph93%29.59 "Hg1 mi
9:20 AM34 °FFog.5 mph93%29.59 "Hg1 mi
8:50 AM32 °FIce fog.6 mph100%29.59 "Hg1 mi
8:20 AM32 °FIce fog.1 mph93%29.59 "Hg1 mi
7:50 AM30 °FChilly.No wind100%29.59 "Hg1 mi
7:20 AM30 °FIce fog.2 mph100%29.59 "Hg2 mi
6:20 AM28 °FLight fog.3 mph100%29.59 "Hg4 mi
5:50 AM30 °FClear.5 mph93%29.59 "Hg10 mi
5:20 AM30 °FClear.5 mph93%29.62 "Hg10 mi
4:50 AM30 °FClear.2 mph93%29.62 "Hg10 mi
4:20 AM30 °FClear.6 mph93%29.62 "Hg10 mi
3:50 AM30 °FClear.5 mph100%29.62 "Hg10 mi
3:20 AM30 °FClear.6 mph93%29.62 "Hg10 mi
2:50 AM30 °FPassing clouds.6 mph93%29.62 "HgN/A
2:20 AM32 °FClear.6 mph93%29.62 "Hg10 mi
1:50 AM32 °FClear.7 mph93%29.62 "Hg10 mi
1:20 AM30 °FClear.6 mph100%29.62 "Hg10 mi
12:50 AM32 °FClear.6 mph93%29.62 "Hg10 mi
12:20 AM34 °FClear.7 mph93%29.62 "Hg10 mi
11:50 PM
Thu, Feb 11
34 °FClear.7 mph93%29.62 "Hg10 mi
10:50 PM34 °FClear.8 mph93%29.62 "Hg10 mi
10:20 PM34 °FPassing clouds.6 mph93%29.62 "HgN/A
9:50 PM34 °FPassing clouds.7 mph93%29.62 "HgN/A
9:20 PM34 °FPassing clouds.6 mph87%29.62 "HgN/A
8:50 PM34 °FPassing clouds.7 mph93%29.62 "HgN/A
8:20 PM34 °FPassing clouds.9 mph93%29.59 "HgN/A
7:50 PM36 °FPassing clouds.9 mph93%29.59 "HgN/A
7:20 PM36 °FPassing clouds.8 mph87%29.62 "HgN/A
6:50 PM36 °FPassing clouds.9 mph93%29.59 "HgN/A
6:20 PM37 °FPassing clouds.12 mph87%29.59 "HgN/A
5:50 PM39 °FPassing clouds.9 mph81%29.59 "HgN/A
5:20 PM39 °FPartly sunny.13 mph87%29.59 "HgN/A
4:50 PM41 °FPartly sunny.15 mph76%29.59 "HgN/A
4:20 PM41 °FPassing clouds.14 mph76%29.59 "HgN/A
3:50 PM41 °FPassing clouds.16 mph70%29.56 "HgN/A
3:20 PM43 °FPassing clouds.18 mph71%29.56 "HgN/A
2:50 PM45 °FPassing clouds.20 mph71%29.56 "HgN/A
2:20 PM45 °FPassing clouds.18 mph71%29.56 "HgN/A
Weather by CustomWeather, © 2016

See weather overviewHow to use our weather pages